NOAA 16 DEB, 41075

Orbit data source: Space-Track

NOAA 16 DEB, 41075 is space debris in SSO originally from a launch on Thu, 21 Sep 2000 UTC launched from the Air Force Western Test Range (AFWTR). Debris objects in space refer to the collection of defunct objects orbiting the Earth. Examples of debris include non-operational satellites, rocket bodies, and fragments generated from explosions, collisions, or faulty payload assembly.

Loading next visibility...
Identifier
41075, 2000-055AJ
Orbit
SSO
Last TLE update
9 hours ago
Origin
Manufacturer
Unknown
Mission
Spacecraft
Bus & Motor
Unknown
Mass
Unknown
Launch date (UTC)
2000-09-21 (25 years ago)
Launch vehicle
Unknown
Launch site
Air Force Western Test Range (AFWTR)
Object type
Payload
Rocket body
Debris
Shape & HBR
Unknown
Radar Cross Section
Small (<0.1 m²)

Expand to show TLE details & history

TLE from 9 hours ago
0 NOAA 16 DEB
1 41075U 00055AJ  25182.83304079  .00024212  00000-0  13175-2 0  9999
2 41075  99.0668 298.2082 0093224 236.2543 122.9774 15.10736912512356
Epoch: 2025-07-01T19:59Z
TLE epoch observation values (Epoch: 2025-07-01T19:59:34.724Z)
Latitude
0.00002°
Longitude
78.19069°
Altitude
572.477 km
Speed
7.555 km/s
True Right ascension
19h 52m 49s
True Declination
0° 00' 00"
Sunlit
Object was in full shadow at epoch
Visualization orbit readout
Latitude
-20.20351°
Longitude
82.00469°
Altitude
557.548 km
Speed
7.573 km/s
Apparent Right ascension
23h 22m 43s
Apparent Declination
-54° 25' 06"
Sunlit
Object is in full shadow
Visualization observer readout
Local Sidereal Time
17:07:58
Azimuth
135.927° SSE
Elevation
-33.406°
Doppler factor
1
Orbital elements
Apogee altitude
595.417 km
Perigee altitude
466.598 km
Semi-major axis
6,909.145 km
Eccentricity
0.00932
Inclination
99.0668°
RAAN
298.2082°
Arg. of periapsis
236.2543°
True anomaly
Unknown
Mean anomaly
122.9774°
Eccentric anomaly
Unknown
Mean motion
3.77926 °/min
Orbital period
95.26 mins
BSTAR
0.0013175
Loading maneuver chart data...
Loading SW <> Apogee altitude chart data...
Loading historical data...
Loading historical data...
Loading historical data...
Loading historical data...
Loading historical data...
Loading historical data...
Loading historical data...

NOAA 16 DEB Visibility forecast

Observer location: undefined°, undefined°

Span
Click to sort rows by Start time (UTC) header in descending order
Start Az.
Max El. time (UTC)
Max El. Az.
Max El.
End time (UTC)
End Az.
7 mins2025-07-02 07:15:23.781Z139.732° SSE2025-07-02 07:18:23.781Z72.999° E35.936°2025-07-02 07:22:23.781Z358.53° N
6 mins2025-07-02 20:25:23.781Z30.125° NE2025-07-02 20:27:23.781Z74.61° E37.984°2025-07-02 20:31:23.781Z180.051° SSW
|